GW1409 Weather Reports


time (UTC)temp
F
wind
direction
speed
knots
gust
knots
rain 1hr
in
rain 24hr
in
rain mn
in
humidity
%
barometer
mb
20260503053443 57 40 0.0 0.0 0.00 0.27 0.27 100 1008.6
20260503053158 57 40 0.0 0.0 0.00 0.27 0.27 100 1008.6
20260503052358 57 40 0.0 0.0 0.00 0.27 0.27 100 1008.6
20260503052320 57 336 0.0 0.0 0.00 0.27 0.27 100 1008.6
20260503051557 57 336 0.0 0.0 0.00 0.27 0.27 100 1008.6
20260503051045 57 11 0.0 0.0 0.00 0.27 0.27 100 1008.7
20260503050235 56 11 0.0 0.0 0.00 0.27 0.27 100 1008.7
20260503045957 56 11 0.0 0.0 0.00 0.27 0.27 100 1008.6
20260503045224 57 11 0.0 0.0 0.00 0.27 0.27 100 1008.6
20260503044649 57 11 0.0 0.0 0.01 0.27 0.27 100 1008.7
20260503044114 57 11 0.0 0.9 0.01 0.27 0.27 100 1008.7
20260503043755 57 11 0.0 0.9 0.02 0.27 0.27 100 1008.6
20260503043211 57 11 0.0 0.0 0.02 0.27 0.27 100 1008.6
20260503042642 57 11 0.0 0.0 0.02 0.27 0.27 100 1008.6
20260503042526 57 11 0.0 0.0 0.02 0.27 0.27 100 1008.7
20260503041401 57 11 0.0 0.0 0.02 0.27 0.27 100 1008.6
20260503040843 57 11 0.0 0.0 0.02 0.27 0.27 100 1008.6
20260503040602 57 11 0.0 0.0 0.02 0.27 0.27 100 1008.7
20260503035828 57 11 0.0 0.0 0.02 0.27 0.27 100 1008.7
20260503035324 57 11 0.0 0.9 0.02 0.27 0.27 100 1008.8
20260503034822 57 11 0.0 0.9 0.02 0.27 0.27 100 1009.1
20260503034303 57 11 0.0 0.0 0.01 0.26 0.26 100 1009.1
20260503033806 57 11 0.0 0.9 0.02 0.26 0.26 100 1009.2
20260503033508 57 11 0.0 0.9 0.01 0.25 0.25 100 1009.3
20260503032740 57 11 0.0 0.0 0.01 0.25 0.25 100 1009.4
20260503032213 57 36 0.0 0.0 0.01 0.25 0.25 100 1009.6
20260503031640 57 36 0.0 0.0 0.01 0.25 0.25 100 1009.6
20260503031140 57 36 0.0 0.0 0.01 0.25 0.25 100 1009.7
20260503030635 56 30 0.0 0.0 0.01 0.25 0.25 100 1009.8
20260503030132 56 34 0.0 0.0 0.01 0.25 0.25 100 1009.8
20260503025612 56 34 0.0 0.0 0.01 0.25 0.25 100 1009.8
20260503025323 56 38 0.0 0.0 0.01 0.25 0.25 100 1009.8
20260503024528 56 38 0.0 0.0 0.01 0.25 0.25 100 1009.7
20260503024016 56 286 0.0 0.0 0.00 0.24 0.24 100 1009.7
20260503023516 56 286 0.0 0.0 0.00 0.24 0.24 100 1009.6
20260503022952 56 286 0.0 0.0 0.00 0.24 0.24 100 1009.7
20260503022448 56 286 0.0 0.0 0.00 0.24 0.24 100 1009.7
20260503021913 56 286 0.0 0.0 0.00 0.24 0.24 100 1009.7
20260503021400 56 306 0.0 0.0 0.00 0.24 0.24 100 1009.7
20260503020900 56 306 0.0 0.0 0.00 0.24 0.24 100 1009.7
20260503020343 56 306 0.0 0.0 0.00 0.24 0.24 100 1009.9
20260503020105 56 306 0.0 0.0 0.00 0.24 0.24 100 1009.6
20260503015311 56 306 0.0 0.0 0.00 0.24 0.24 100 1009.6
20260503014745 56 306 0.0 0.0 0.00 0.24 0.24 100 1009.6
20260503014244 56 306 0.0 0.0 0.00 0.24 0.24 100 1009.5
20260503013954 56 306 0.0 0.0 0.00 0.24 0.24 100 1009.6
20260503013221 56 306 0.0 0.0 0.00 0.24 0.24 100 1009.6
20260503012649 56 306 0.0 0.0 0.00 0.24 0.24 100 1009.7
20260503012132 56 306 0.0 0.0 0.00 0.24 0.24 100 1009.7
20260503011632 56 306 0.0 0.0 0.00 0.24 0.24 100 1009.7
20260503011057 56 306 0.0 0.0 0.00 0.24 0.24 100 1009.8
20260503010741 56 306 0.0 0.0 0.00 0.24 0.24 100 1009.8
20260503005943 56 306 0.0 0.0 0.00 0.24 0.24 100 1009.9
20260503005705 56 306 0.0 0.0 0.00 0.24 0.24 100 1009.9
20260503005151 56 306 0.0 0.0 0.00 0.24 0.24 100 1010.0
20260503004352 56 298 0.0 0.0 0.00 0.24 0.24 100 1009.9
20260503003836 56 298 0.0 0.9 0.00 0.24 0.24 100 1009.9
20260503003337 56 298 0.0 0.9 0.00 0.24 0.24 100 1010.1
20260503002802 56 283 0.0 0.0 0.00 0.24 0.24 100 1009.9
20260503002249 56 261 0.0 0.0 0.00 0.24 0.24 100 1010.0
20260503001740 56 261 0.0 0.0 0.01 0.24 0.24 100 1010.1
20260503001236 56 261 0.0 0.0 0.01 0.24 0.24 100 1010.2
20260503000733 56 261 0.0 0.0 0.01 0.24 0.24 100 1010.3
20260503000156 56 261 0.0 0.0 0.01 0.24 0.24 100 1010.4
20260502235915 56 261 0.0 0.0 0.02 0.24 0.24 100 1010.4
20260502235142 56 261 0.0 0.0 0.05 0.24 0.24 100 1010.4
20260502234623 56 261 0.0 0.0 0.08 0.24 0.24 100 1010.4
20260502234124 57 261 0.0 0.0 0.09 0.24 0.24 100 1010.4
20260502233551 57 258 0.0 0.0 0.11 0.24 0.24 100 1010.4
20260502233316 57 273 0.0 0.0 0.14 0.24 0.24 100 1010.5
20260502232803 57 273 0.0 0.9 0.16 0.24 0.24 100 1010.5
20260502232043 57 273 0.0 0.9 0.18 0.24 0.24 100 1010.4
20260502231543 57 272 0.0 0.0 0.18 0.23 0.23 100 1010.4
20260502231038 57 272 0.0 0.0 0.20 0.23 0.23 100 1010.4
20260502230535 57 270 0.0 0.0 0.23 0.23 0.23 100 1010.5
20260502230011 57 257 0.0 0.0 0.23 0.23 0.23 100 1010.7
20260502225503 57 271 0.0 0.0 0.21 0.21 0.21 100 1010.8
20260502224956 57 254 0.0 0.0 0.18 0.18 0.18 100 1011.0
20260502224447 57 263 0.0 0.0 0.16 0.16 0.16 100 1010.9
20260502223948 57 271 0.0 0.0 0.14 0.14 0.14 100 1011.1
20260502223708 57 183 0.0 0.9 0.13 0.13 0.13 100 1011.3
20260502222945 57 212 0.0 0.9 0.10 0.10 0.10 100 1011.7
20260502222445 58 319 0.0 0.0 0.08 0.08 0.08 100 1012.0
20260502221943 58 319 0.0 0.0 0.06 0.06 0.06 100 1012.3
20260502221443 58 327 0.0 0.0 0.05 0.05 0.05 100 1012.4
20260502220943 59 327 0.0 0.0 0.02 0.02 0.03 100 1012.8
20260502220443 59 327 0.0 0.0 0.00 0.00 0.00 100 1012.6
20260502215943 59 281 0.0 0.0 0.00 0.00 0.00 100 1012.8
20260502215443 59 346 0.0 1.7 0.00 0.00 0.00 100 1013.5
20260502214939 59 204 0.0 1.7 0.00 0.00 0.00 100 1013.5
20260502214439 59 323 0.0 0.0 0.00 0.00 0.00 100 1012.5
20260502214201 59 323 0.0 0.0 0.00 0.00 0.00 100 1011.7
20260502213438 59 5 0.0 0.0 0.00 0.00 0.00 100 1011.6
20260502212932 59 9 0.0 0.0 0.00 0.00 0.00 100 1011.7
20260502212425 59 9 0.0 0.0 0.00 0.00 0.00 100 1011.6
20260502211904 59 9 0.0 0.0 0.00 0.00 0.00 100 1011.7
20260502211343 59 9 0.0 0.0 0.00 0.00 0.00 100 1011.7
20260502211104 59 9 0.0 0.0 0.00 0.00 0.00 100 1011.6
20260502210343 59 9 0.0 0.0 0.00 0.00 0.00 8 1011.6
20260502205843 59 9 0.0 0.0 0.00 0.00 0.00 22 1011.7
20260502205344 59 24 0.0 0.0 0.00 0.00 0.00 39 1011.8
20260502204843 59 24 0.0 0.0 0.00 0.00 0.00 45 1011.9
20260502204547 59 24 0.0 0.0 0.00 0.00 0.00 51 1012.1
20260502204434 59 24 0.0 0.0 0.00 0.00 0.00 49 1012.0
20260502203339 59 24 0.0 0.0 0.00 0.00 0.00 52 1012.2
20260502202839 59 24 0.0 0.0 0.00 0.00 0.00 53 1012.2
20260502202335 59 24 0.0 0.0 0.00 0.00 0.00 55 1012.2
20260502202047 60 35 0.0 0.0 0.00 0.00 0.00 57 1012.3
20260502201329 60 35 0.0 0.0 0.00 0.00 0.00 58 1012.4
20260502200819 60 63 0.0 0.0 0.00 0.00 0.00 59 1012.5
20260502200316 60 63 0.0 0.0 0.00 0.00 0.00 60 1012.6
20260502195755 60 63 0.0 0.0 0.00 0.00 0.00 60 1012.7
20260502195251 60 63 0.0 0.0 0.00 0.00 0.00 60 1012.6
20260502195016 61 63 0.0 0.0 0.00 0.00 0.00 60 1012.6
20260502194250 61 63 0.0 0.0 0.00 0.00 0.00 59 1012.7
20260502193747 61 63 0.0 0.0 0.00 0.00 0.00 59 1012.5
20260502193247 61 63 0.0 0.0 0.00 0.00 0.00 59 1012.5
20260502192740 61 63 0.0 0.0 0.00 0.00 0.00 59 1012.5
20260502192236 62 5 0.0 0.0 0.00 0.00 0.00 59 1012.5
20260502191707 62 5 0.0 0.0 0.00 0.00 0.00 59 1012.5
20260502191207 62 5 0.0 0.0 0.00 0.00 0.00 58 1012.6
20260502190703 62 5 0.0 0.0 0.00 0.00 0.00 59 1012.6
20260502190206 62 5 0.0 0.0 0.00 0.00 0.00 59 1012.6
20260502185643 62 5 0.0 0.0 0.00 0.00 0.00 59 1012.7
20260502185144 63 23 0.0 0.0 0.00 0.00 0.00 59 1012.7
20260502184644 63 355 0.0 0.0 0.00 0.00 0.00 59 1012.7
20260502184141 63 355 0.0 0.0 0.00 0.00 0.00 59 1012.7
20260502183638 64 355 0.0 0.0 0.00 0.00 0.00 58 1012.6
20260502183117 64 102 0.0 0.0 0.00 0.00 0.00 58 1012.6
20260502182605 65 355 0.0 0.0 0.00 0.00 0.00 57 1012.6
20260502182047 65 355 0.0 0.0 0.00 0.00 0.00 56 1012.6
20260502181808 66 338 0.0 0.0 0.00 0.00 0.00 53 1012.5
20260502181309 66 94 0.0 0.0 0.00 0.00 0.00 48 1012.5
20260502180548 66 355 0.0 0.9 0.00 0.00 0.00 46 1012.5
20260502180246 66 15 0.0 0.9 0.00 0.00 0.00 47 1012.5
20260502170145 69 17 0.0 2.6 0.00 0.00 0.00 45 1013.2
20260502164116 70 355 0.0 2.6 0.00 0.00 0.00 44 1013.5
20260502163346 70 355 0.0 3.5 0.00 0.00 0.00 44 1013.7
20260502162828 70 5 0.0 3.5 0.00 0.00 0.00 44 1013.7
20260502162316 70 0 0.0 2.6 0.00 0.00 0.00 44 1013.7
20260502161817 70 51 0.0 5.2 0.00 0.00 0.00 45 1013.7
20260502161300 70 5 0.0 5.2 0.00 0.00 0.00 44 1013.7
20260502160759 70 355 0.0 2.6 0.00 0.00 0.00 44 1013.7
20260502160259 71 169 0.0 2.6 0.00 0.00 0.00 44 1013.8
20260502152249 72 46 0.0 5.2 0.00 0.00 0.00 48 1014.0
20260502151747 72 144 0.0 5.2 0.00 0.00 0.00 48 1014.0
20260502151246 72 342 0.0 3.5 0.00 0.00 0.00 48 1014.0
20260502150747 72 42 0.0 3.5 0.00 0.00 0.00 48 1014.1
20260502150247 72 345 0.0 1.7 0.00 0.00 0.00 48 1014.1
20260502130653 71 146 0.0 1.7 0.00 0.00 0.00 58 1015.2
20260502130154 70 42 0.0 5.2 0.00 0.00 0.00 58 1015.2
20260502123647 71 131 0.0 2.6 0.00 0.00 0.00 57 1015.4
20260502123147 71 113 0.0 3.5 0.00 0.00 0.00 58 1015.4
20260502122647 71 85 0.0 3.5 0.00 0.00 0.00 58 1015.5
20260502122149 71 342 0.0 5.2 0.00 0.00 0.00 57 1015.5
20260502121646 71 205 0.0 5.2 0.00 0.00 0.00 58 1015.6
20260502121147 71 157 0.0 5.2 0.00 0.00 0.00 58 1015.6
20260502120647 71 153 0.0 5.2 0.00 0.00 0.00 57 1015.6
20260502120143 70 188 0.0 3.5 0.00 0.00 0.00 57 1015.6
20260502115911 70 162 0.0 5.2 0.00 0.00 0.00 56 1015.7
20260502115137 69 164 0.0 6.1 0.00 0.00 0.00 56 1015.7
20260502114633 69 156 0.0 6.1 0.00 0.00 0.00 55 1015.7
20260502114123 68 156 0.0 1.7 0.00 0.00 0.00 51 1015.8
20260502113847 68 167 0.0 2.6 0.00 0.00 0.00 49 1015.8
20260502113112 68 97 0.0 2.6 0.00 0.00 0.00 47 1015.8
20260502112611 68 134 0.0 3.5 0.00 0.00 0.00 46 1015.9
20260502112113 68 34 0.0 6.1 0.00 0.00 0.00 44 1015.9
20260502111559 68 55 0.0 6.1 0.00 0.00 0.00 48 1016.0
20260502111100 68 107 0.0 3.5 0.00 0.00 0.00 49 1016.0
20260502110558 69 135 0.0 0.9 0.00 0.00 0.00 51 1016.0
20260502110331 69 138 0.0 3.5 0.00 0.00 0.00 52 1015.9
20260502105601 68 150 0.0 3.5 0.00 0.00 0.00 51 1015.8
20260502105100 68 11 0.0 2.6 0.00 0.00 0.00 52 1016.0
20260502104552 68 135 0.0 5.2 0.00 0.00 0.00 52 1016.1
20260502104308 68 188 0.0 5.2 0.00 0.00 0.00 54 1016.1
20260502104028 69 153 0.0 3.5 0.00 0.00 0.00 55 1016.1
20260502103042 69 105 0.0 3.5 0.00 0.00 0.00 56 1016.1
20260502102755 69 348 0.0 4.3 0.00 0.00 0.00 56 1016.0
20260502102030 69 149 0.0 4.3 0.00 0.00 0.00 54 1016.1
20260502101745 69 155 0.0 3.5 0.00 0.00 0.00 55 1016.1
20260502101026 68 315 0.0 3.5 0.00 0.00 0.00 53 1016.2
20260502100527 68 163 0.0 4.3 0.00 0.00 0.00 54 1016.2
20260502091444 65 150 0.0 0.0 0.00 0.00 0.00 43 1016.3
20260502090940 65 131 0.0 0.0 0.00 0.00 0.00 44 1016.4
20260502090434 65 130 0.0 0.0 0.00 0.00 0.00 45 1016.4
20260502090156 65 162 0.0 0.0 0.00 0.00 0.00 38 1016.3
20260502071256 60 39 0.0 0.0 0.00 0.00 0.00 60 1016.4
20260502070748 59 36 0.0 0.0 0.00 0.00 0.00 61 1016.4
20260502070513 59 37 0.0 0.0 0.00 0.00 0.00 61 1016.6
20260502065744 59 37 0.0 0.0 0.00 0.00 0.00 61 1016.7
20260502065245 58 37 0.0 0.0 0.00 0.00 0.00 61 1016.6
20260502064739 58 37 0.0 0.0 0.00 0.00 0.00 61 1016.4
20260502064241 58 37 0.0 0.0 0.00 0.00 0.00 61 1016.4
20260502063949 58 37 0.0 0.0 0.00 0.00 0.00 61 1016.4
20260502063222 57 37 0.0 0.0 0.00 0.00 0.00 61 1016.4
20260502062948 57 37 0.0 0.0 0.00 0.00 0.00 61 1016.4
20260502062210 57 37 0.0 0.0 0.00 0.00 0.00 61 1016.5
20260502061709 56 37 0.0 0.0 0.00 0.00 0.00 61 1016.4
20260502061146 56 37 0.0 0.0 0.00 0.00 0.00 61 1016.3
20260502060634 56 37 0.0 0.0 0.00 0.00 0.00 61 1016.4
20260502060112 56 37 0.0 0.0 0.00 0.00 0.00 62 1016.5
20260502055614 55 37 0.0 0.0 0.00 0.00 0.00 62 1016.5
20260502055055 55 37 0.0 0.0 0.00 0.00 0.00 62 1016.5
20260502054538 55 37 0.0 0.0 0.00 0.00 0.00 62 1016.4
20260502054041 54 38 0.0 0.0 0.00 0.00 0.00 62 1016.3